OK5TVR-5 Weather Reports


time (UTC)temp
C
wind
direction
speed
KPH
gust
KPH
rain 1hr
cm
rain 24hr
cm
rain mn
cm
humidity
%
barometer
mb
20260505224522 12 180 0.0 0.0 0.03 0.03 0.00 99 999.7
20260505223019 12 222 0.0 0.0 0.03 0.03 0.00 10 999.7
20260505214708 12 270 0.0 0.0 0.00 0.03 0.00 10 999.7
20260505213206 12 135 1.6 3.2 0.00 0.03 0.00 10 999.7
20260505211705 12 270 0.0 0.0 0.00 0.03 0.00 10 999.7
20260505210203 12 180 3.2 6.4 0.00 0.03 0.00 10 996.7
20260505204700 13 222 4.8 6.4 0.00 0.03 0.00 10 999.8
20260505203158 13 270 3.2 6.4 0.00 0.00 0.00 10 999.7
20260505201658 13 180 4.8 8.0 0.00 0.03 0.00 10 999.8
20260505200157 13 180 4.8 6.4 0.00 0.03 0.00 10 999.7
20260505194655 13 315 12.9 17.7 0.20 0.20 0.00 99 999.7
20260505193155 13 270 11.3 19.3 0.18 0.20 0.00 10 999.7
20260505191654 13 270 14.5 25.7 0.18 0.20 0.00 10 999.7
20260505184651 16 180 1.6 3.2 0.03 0.18 0.00 92 998.4
20260505183151 16 222 3.2 8.0 0.00 0.18 0.00 97 998.4
20260505181651 16 45 11.3 20.9 0.00 0.18 0.00 93 996.2
20260505180150 16 0 22.5 38.6 0.00 0.18 0.00 89 996.2
20260505174652 16 222 16.1 32.2 0.00 0.00 0.00
20260505173151 17 270 3.2 6.4 0.13 0.00 0.00 85 997.0
20260505171650 20 45 14.5 22.5 0.00 0.00 0.00 63 996.8
20260505170151 20 315 17.7 27.4 0.00 0.00 0.00 60 995.7
20260505164648 20 0 12.9 24.1 0.00 0.00 0.00 61 995.7
20260505163148 20 315 17.7 32.2 0.00 0.00 0.00 59 995.7
20260505161648 21 0 16.1 27.4 0.00 0.00 0.00 58 996.7
20260505160147 21 270 16.1 25.7 0.00 0.00 0.00 54 996.6
20260505153143 23 270 9.7 17.7 0.00 0.00 0.00 42 996.3
20260505151641 24 90 9.7 17.7 0.00 0.00 0.00 41 996.2
20260505150141 26 90 6.4 14.5 0.00 0.00 0.00 36 996.0
20260505140138 29 222 3.2 6.4 0.00 0.00 0.00 26 995.7
20260505140136 29 222 3.2 6.4 0.00 0.00 0.00 26 995.7
20260505130129 29 90 4.8 11.3 0.00 0.00 0.00 26 995.6
20260505124630 27 315 6.4 12.9 0.00 0.00 0.00 36 997.0
20260505123131 28 45 4.8 11.3 0.00 0.00 0.00 34 996.8
20260505121631 28 90 3.2 8.0 0.00 0.00 0.00
20260505120129 28 90 3.2 6.4 0.00 0.00 0.00 31 996.8
20260505114627 28 135 4.8 9.7 0.00 0.00 0.00 34 996.8
20260505113126 28 270 3.2 11.3 0.00 0.00 0.00 37 996.9
20260505111627 27 180 4.8 12.9 0.00 0.00 0.00 39 997.1
20260505110125 28 90 6.4 12.9 0.00 0.00 0.00 33 996.8
20260505101622 25 180 4.8 12.9 0.00 0.00 0.00 39 998.2
20260505100121 26 90 4.8 9.7 0.00 0.00 0.00 37 998.0
20260505094619 25 222 4.8 12.9 0.00 0.00 0.00 39 998.3
20260505093115 26 135 1.6 6.4 0.00 0.00 0.00 38 998.2
20260505091613 25 270 3.2 6.4 0.00 0.00 0.00 41 998.2
20260505090113 -17 270 6.4 0.0 0.00 0.00 0.00 43 999.3
20260505090111 25 270 6.4 12.9 0.00 0.00 0.00 43 999.3
20260505084610 26 90 1.6 6.4 0.00 0.00 0.00 40 999.2
20260505083107 23 222 3.2 6.4 0.00 0.00 0.00 47 999.5
20260505080108 24 135 1.6 4.8 0.00 0.00 0.00 45 999.4
20260505074607 22 180 1.6 6.4 0.00 0.00 0.00 50 999.5
20260505074605 -17 180 1.6 0.0 0.00 0.00 0.00 50 999.5
20260505073105 23 315 4.8 11.3 0.00 0.00 0.00 51 999.5
20260505071603 22 135 6.4 12.9 0.00 0.00 0.00 51 999.5
20260505070103 22 90 4.8 6.4 0.00 0.00 0.00 53 999.6
20260505064601 21 315 6.4 12.9 0.00 0.00 0.00 57 999.8
20260505063101 20 0 6.4 12.9 0.00 0.00 0.00 59 1000.9
20260505061559 18 0 6.4 14.5 0.00 0.00 0.00 62 1001.1
20260505054556 15 180 0.0 0.0 0.00 0.00 0.00 78 1001.5
20260505053053 15 180 0.0 0.0 0.00 0.00 0.00 78 1001.5
20260505051553 13 180 0.0 0.0 0.00 0.00 0.00 82 1001.7
20260505041548 13 180 0.0 0.0 0.00 0.00 0.00 80 1001.7
20260505040046 13 180 0.0 0.0 0.00 0.00 0.00 78 1001.7
20260505034546 13 180 1.6 3.2 0.00 0.00 0.00 77 1001.6
20260505033046 13 315 1.6 4.8 0.00 0.00 0.00 78 1001.7
20260505031543 13 315 0.0 0.0 0.00 0.00 0.00 79 1001.7
20260505030043 13 90 1.6 6.4 0.00 0.00 0.00 76 1002.7
20260505024543 13 90 1.6 6.4 0.00 0.00 0.00 76 1002.6
20260505023041 15 180 0.0 0.0 0.00 0.00 0.00 70 1001.5
20260505021539 15 222 4.8 12.9 0.00 0.00 0.00 69 1002.5
20260505020036 15 180 1.6 4.8 0.00 0.00 0.00 74 1002.6
20260505014536 15 222 0.0 0.0 0.00 0.00 0.00 70 1002.5
20260505011535 15 270 1.6 6.4 0.00 0.00 0.00 70 1002.5
20260505010032 15 180 0.0 0.0 0.00 0.00 0.00 70 1002.6
20260505004530 15 180 0.0 1.6 0.00 0.00 0.00 67 1002.5
20260505003027 16 222 1.6 8.0 0.00 0.00 0.00 64 1002.4
20260505001526 16 0 8.0 17.7 0.00 0.00 0.00 65 1002.4
20260505000026 16 315 4.8 12.9 0.00 0.00 0.00 65 1002.4
20260504234525 16 0 4.8 12.9 0.00 0.00 0.00
20260504233021 16 315 4.8 11.3 0.00 0.00 0.00 62 1003.4
20260504231519 16 45 9.7 17.7 0.00 0.00 0.00 61 1003.4
20260504230017 16 315 9.7 14.5 0.00 0.00 0.00 61 1003.4